Imperial, CA

2:04 AM PDT on April 24, 2017 (GMT -0700)
Imperial County

Weather History for KIPL - August, 2014

Change the Weather History Date:

Saturday, August 9, 2014

  Actual Average Record
Temperature  
Mean Temperature 88 °F -  
Max Temperature 106 °F 105 °F 114 °F (2004)
Min Temperature 70 °F 79 °F 61 °F (1949)
Cooling Degree Days 22    
Growing Degree Days 38 (Base 50)    
Moisture  
Dew Point 57 °F    
Average Humidity 39    
Maximum Humidity 73    
Minimum Humidity 13    
Precipitation  
Precipitation 0.00 in - - ()
Sea Level Pressure  
Sea Level Pressure 29.82 in    
Wind  
Wind Speed 6 mph (SE)    
Max Wind Speed 12 mph    
Max Gust Speed 25 mph    
Visibility 10 miles    
Events      
Averages and records for this station are not official NWS values.
T = Trace of Precipitation, MM = Missing Value Source: NWS Daily Summary

Daily Weather History Graph

Daily Weather History Graph

Search for Another Location

Airport or City:

Trip Planner

Search our weather history database for the weather conditions in past years. The results will help you decide how hot, cold, wet, or windy it might be!

Date:

Astronomy

Aug. 09, 2014 Rise Set
Actual Time 6:01 AM PDT 7:33 PM PDT
Civil Twilight 5:35 AM PDT 7:59 PM PDT
Nautical Twilight 5:03 AM PDT 8:31 PM PDT
Astronomical Twilight 4:30 AM PDT 9:04 PM PDT
Moon 6:40 PM PDT (8/9) 4:47 AM PDT (8/9)
Length of Visible Light 14h 24m
Length of Day
13h 31m
Waxing Gibbous, 99% of the Moon is Illuminated
Aug 9
Waxing Gibbous
Aug 10
Full
Aug 17
Last Quarter
Aug 25
New
Sep 2
First Quarter

Hourly Weather History & Observations

Time (PDT) Temp. Heat Index Dew Point Humidity Pressure Visibility Wind Dir Wind Speed Gust Speed Precip Events Conditions
12:53 AM 82.9 °F 84.0 °F 63.0 °F 51% 29.80 in 10.0 mi South 5.8 mph - N/A   Clear
1:53 AM 79.0 °F - 63.0 °F 58% 29.78 in 10.0 mi East 3.5 mph - N/A   Clear
2:53 AM 75.9 °F - 63.0 °F 64% 29.79 in 10.0 mi ENE 3.5 mph - N/A   Clear
3:53 AM 73.9 °F - 61.0 °F 64% 29.80 in 10.0 mi East 6.9 mph - N/A   Clear
4:53 AM 75.0 °F - 61.0 °F 62% 29.82 in 10.0 mi Calm Calm - N/A   Clear
5:53 AM 71.1 °F - 62.1 °F 73% 29.84 in 10.0 mi West 4.6 mph - N/A   Clear
6:53 AM 70.0 °F - 61.0 °F 73% 29.86 in 10.0 mi West 4.6 mph - N/A   Clear
7:53 AM 78.1 °F - 64.9 °F 64% 29.88 in 10.0 mi North 4.6 mph - N/A   Clear
8:53 AM 84.0 °F 86.3 °F 66.0 °F 55% 29.89 in 10.0 mi Calm Calm - N/A   Clear
10:53 AM 90.0 °F 90.3 °F 62.1 °F 39% 29.90 in 10.0 mi Calm Calm - N/A   Clear
11:53 AM 95.0 °F 94.8 °F 60.1 °F 31% 29.88 in 10.0 mi Variable 5.8 mph - N/A   Clear
12:53 PM 100.0 °F - 52.0 °F 20% 29.86 in 10.0 mi Variable 5.8 mph - N/A   Clear
1:53 PM 102.9 °F 100.9 °F 53.1 °F 19% 29.84 in 10.0 mi SSE 9.2 mph 25.3 mph N/A   Clear
2:53 PM 104.0 °F 101.8 °F 53.1 °F 18% 29.80 in 10.0 mi ESE 8.1 mph - N/A   Clear
3:53 PM 105.1 °F - 45.0 °F 13% 29.78 in 10.0 mi East 11.5 mph - N/A   Clear
4:53 PM 104.0 °F - 45.0 °F 14% 29.76 in 10.0 mi East 11.5 mph - N/A   Clear
5:53 PM 104.0 °F - 48.0 °F 15% 29.76 in 10.0 mi ESE 10.4 mph - N/A   Clear
6:53 PM 100.9 °F - 52.0 °F 19% 29.76 in 10.0 mi ESE 11.5 mph - N/A   Clear
7:53 PM 96.8 °F - 48.2 °F 19% 29.76 in 10.0 mi SE 8.1 mph - N/A   Clear
9:53 PM 93.0 °F 90.6 °F 53.1 °F 26% 29.81 in 10.0 mi South 9.2 mph - N/A   Clear
10:53 PM 89.1 °F 86.7 °F 53.1 °F 29% 29.81 in 10.0 mi South 6.9 mph - N/A   Clear
11:53 PM 88.0 °F 85.9 °F 54.0 °F 31% 29.81 in 10.0 mi SSE 4.6 mph - N/A   Clear